This demonstration page uses our WeatherBlox Daily Observations layout. Learn more.

Left ArrowRight Arrow

Hourly Observations for September 1, 2017

Temp ( °F °C ) Dew Point ( °F °C ) Humidity (%) Winds ( mph kmh ) Pressure ( in mb ) Visibility ( mi km ) Precip ( " mm )
12:10 am 00:10 Clear 63 17 54 12 73 73 ENE 14 22 30.09 1019 10 16 N/A
12:29 am 00:29 Clear 61 16 52 11 72 72 ENE 13 20 30.09 1019 10 16 N/A
12:49 am 00:49 Clear 61 16 52 11 72 72 ENE 16 26 30.09 1019 10 16 N/A
1:10 am 01:10 Clear 61 16 52 11 72 72 ENE 15 24 30.09 1019 10 16 N/A
1:29 am 01:29 Clear 61 16 50 10 68 68 E 15 24 30.09 1019 10 16 N/A
1:50 am 01:50 Clear 61 16 50 10 68 68 E 14 22 30.09 1019 10 16 N/A
2:09 am 02:09 Clear 61 16 50 10 68 68 ENE 13 20 30.09 1019 10 16 N/A
2:30 am 02:30 Clear 59 15 50 10 72 72 ENE 15 24 30.09 1019 10 16 N/A
2:50 am 02:50 Clear 59 15 52 11 77 77 ENE 13 20 30.09 1019 10 16 N/A
3:09 am 03:09 Clear 59 15 52 11 77 77 ENE 12 19 30.09 1019 10 16 N/A
3:30 am 03:30 Clear 59 15 52 11 77 77 ENE 13 20 30.06 1018 10 16 N/A
3:50 am 03:50 Clear 57 14 50 10 77 77 ENE 14 22 30.06 1018 10 16 N/A
4:09 am 04:09 Clear 57 14 50 10 77 77 ENE 13 20 30.06 1018 10 16 N/A
4:30 am 04:30 Clear 57 14 50 10 77 77 ENE 14 22 30.06 1018 10 16 N/A
4:50 am 04:50 Clear 57 14 50 10 77 77 ENE 14 22 30.06 1018 10 16 N/A
5:09 am 05:09 Clear 57 14 50 10 77 77 ENE 14 22 30.06 1018 10 16 N/A
5:29 am 05:29 Clear 57 14 50 10 77 77 ENE 15 24 30.06 1018 10 16 N/A
5:50 am 05:50 Clear 57 14 52 11 82 82 ENE 15 24 30.06 1018 10 16 N/A
6:10 am 06:10 Clear 57 14 52 11 82 82 ENE 14 22 30.06 1018 10 16 N/A
6:29 am 06:29 Clear 55 13 52 11 88 88 NE 13 20 30.06 1018 10 16 N/A
6:50 am 06:50 Clear 55 13 52 11 88 88 ENE 14 22 30.03 1017 10 16 N/A
7:10 am 07:10 Clear 55 13 52 11 88 88 NE 12 19 30.06 1018 10 16 N/A
7:29 am 07:29 Sunny 55 13 52 11 88 88 ENE 12 19 30.06 1018 10 16 N/A
7:50 am 07:50 Sunny 55 13 52 11 88 88 ENE 16 26 30.06 1018 10 16 N/A
8:10 am 08:10 Sunny 55 13 52 11 88 88 NE 10 17 30.06 1018 10 16 N/A
8:29 am 08:29 Sunny 55 13 52 11 88 88 NE 15 24 30.06 1018 10 16 N/A
8:50 am 08:50 Sunny 55 13 52 11 88 88 NE 12 19 30.06 1018 10 16 N/A
9:10 am 09:10 Sunny 55 13 52 11 88 88 ENE 13 20 30.06 1018 10 16 N/A
9:29 am 09:29 Sunny 57 14 52 11 82 82 ENE 14 22 30.06 1018 10 16 N/A
9:50 am 09:50 Sunny 57 14 52 11 82 82 NE 16 26 30.06 1018 10 16 N/A
10:10 am 10:10 Sunny 57 14 52 11 82 82 NE 17 28 30.06 1018 10 16 N/A
10:29 am 10:29 Sunny 59 15 52 11 77 77 ENE 17 28 30.06 1018 10 16 N/A
10:49 am 10:49 Sunny 59 15 52 11 77 77 ENE 16 26 30.06 1018 10 16 N/A
11:09 am 11:09 Sunny 59 15 50 10 72 72 ENE 23 37 30.06 1018 10 16 N/A
11:30 am 11:30 Sunny 59 15 50 10 72 72 ENE 15 24 30.06 1018 10 16 N/A
11:49 am 11:49 Sunny 59 15 50 10 72 72 ENE 20 31 30.06 1018 10 16 N/A
12:09 pm 12:09 Sunny 59 15 48 9 68 68 ENE 16 26 30.06 1018 10 16 N/A
12:30 pm 12:30 Sunny 61 16 48 9 63 63 ENE 16 26 30.06 1018 10 16 N/A
12:49 pm 12:49 Sunny 61 16 48 9 63 63 ENE 18 30 30.06 1018 10 16 N/A
1:09 pm 13:09 Sunny 63 17 50 10 64 64 NE 14 22 30.06 1018 10 16 N/A
1:30 pm 13:30 Sunny 63 17 48 9 59 59 NE 21 33 30.06 1018 10 16 N/A
1:49 pm 13:49 Sunny 63 17 46 8 56 56 NE 20 31 30.06 1018 10 16 N/A
2:09 pm 14:09 Sunny 63 17 48 9 59 59 NE 14 22 30.06 1018 10 16 N/A
2:30 pm 14:30 Sunny 63 17 46 8 56 56 NE 16 26 30.06 1018 10 16 N/A
2:49 pm 14:49 Sunny 63 17 46 8 56 56 ENE 14 22 30.06 1018 10 16 N/A
3:09 pm 15:09 Sunny 63 17 46 8 56 56 ENE 15 24 30.03 1017 10 16 N/A
3:30 pm 15:30 Sunny 63 17 46 8 56 56 NE 17 28 30.03 1017 10 16 N/A
3:49 pm 15:49 Sunny 63 17 45 7 52 52 NE 14 22 30.03 1017 10 16 N/A
4:09 pm 16:09 Partly Cloudy 63 17 46 8 56 56 NNE 17 28 30.03 1017 10 16 N/A
4:30 pm 16:30 Mostly Cloudy 63 17 46 8 56 56 NE 17 28 30.03 1017 10 16 N/A
4:49 pm 16:49 Mostly Cloudy 63 17 45 7 52 52 NE 15 24 30.03 1017 10 16 N/A
5:09 pm 17:09 Cloudy 63 17 45 7 52 52 NE 15 24 30.03 1017 10 16 N/A
5:30 pm 17:30 Cloudy 63 17 46 8 56 56 NNE 13 20 30.03 1017 10 16 N/A
5:49 pm 17:49 Partly Cloudy 63 17 45 7 52 52 NE 16 26 30.03 1017 10 16 N/A
6:10 pm 18:10 Sunny 61 16 46 8 59 59 NE 10 17 30.03 1017 10 16 N/A
6:30 pm 18:30 Mostly Cloudy 61 16 46 8 59 59 NE 15 24 30.03 1017 10 16 N/A
6:49 pm 18:49 Mostly Cloudy 61 16 46 8 59 59 NE 10 17 30.06 1018 10 16 N/A
7:10 pm 19:10 Mostly Cloudy 61 16 46 8 59 59 NE 8 13 30.06 1018 10 16 N/A
7:30 pm 19:30 Mostly Cloudy 61 16 46 8 59 59 NE 10 17 30.03 1017 10 16 N/A
7:49 pm 19:49 Mostly Cloudy 61 16 46 8 59 59 NE 9 15 30.03 1017 10 16 N/A
8:10 pm 20:10 Cloudy 59 15 46 8 63 63 NE 9 15 30.03 1017 10 16 N/A
8:29 pm 20:29 Cloudy 59 15 48 9 68 68 NNE 9 15 30.03 1017 10 16 N/A
8:49 pm 20:49 Cloudy 61 16 48 9 63 63 NNE 12 19 30.03 1017 10 16 N/A
9:10 pm 21:10 Cloudy 61 16 48 9 63 63 NE 13 20 30.03 1017 10 16 N/A
9:29 pm 21:29 Mostly Cloudy 61 16 48 9 63 63 NNE 12 19 30.03 1017 10 16 N/A
9:50 pm 21:50 Mostly Cloudy 59 15 50 10 72 72 NE 12 19 30.03 1017 10 16 N/A
10:09 pm 22:09 Mostly Cloudy 59 15 50 10 72 72 NE 12 19 30.06 1018 10 16 N/A
10:30 pm 22:30 Cloudy 59 15 50 10 72 72 NE 13 20 30.03 1017 10 16 N/A
10:50 pm 22:50 Partly Cloudy 59 15 50 10 72 72 NE 15 24 30.03 1017 10 16 N/A
11:09 pm 23:09 Clear 59 15 48 9 68 68 NE 14 22 30.03 1017 10 16 N/A
11:30 pm 23:30 Partly Cloudy 59 15 48 9 68 68 NNE 10 17 30.03 1017 10 16 N/A
11:50 pm 23:50 Cloudy 57 14 50 10 77 77 NNE 10 17 30.03 1017 10 16 N/A

Powered by AerisWeather